Flight Track Log - Related Links

Times and Time Zones

All times are in EDT time to prevent confusion due to time zone crossing. See the UAL3773 flight status page for this flight to view local times or setup timezone preferences in your user account.

Time Position Orientation Groundspeed Altitude Reporting Facility
EDT Latitude Longitude Course Direction KTS MPH feet Rate Location/Type
Fri 10:35:46 AM 35.1969 -80.9331 72° East 150 173 1,600  Level FAA TRACON SMA TRACON (SMA)
Fri 10:36:06 AM 35.1814 -80.9308 173° South 149 171 2,500 2,250 Climbing FAA TRACON SMA TRACON (SMA)
Fri 10:36:26 AM 35.1683 -80.9303 178° South 153 176 3,100 1,650 Climbing FAA TRACON SMA TRACON (SMA)
Fri 10:36:46 AM 35.1533 -80.9256 166° South 191 220 3,600 1,500 Climbing FAA TRACON SMA TRACON (SMA)
Fri 10:37:06 AM 35.1339 -80.9075 143° Southeast 243 280 4,100 1,950 Climbing FAA TRACON SMA TRACON (SMA)
Fri 10:37:26 AM 35.1178 -80.8892 137° Southeast 255 293 4,900 2,250 Climbing FAA TRACON SMA TRACON (SMA)
Fri 10:37:46 AM 35.1033 -80.8717 135° Southeast 266 306 5,600 2,850 Climbing FAA TRACON SMA TRACON (SMA)
Fri 10:38:06 AM 35.0942 -80.8317 106° East 316 364 6,800 3,000 Climbing FAA TRACON SMA TRACON (SMA)
Fri 10:38:26 AM 35.0967 -80.7992 85° East 318 366 7,600 1,317 Climbing FAA TRACON SMA TRACON (SMA)
Fri 10:38:47 AM 35.1000 -80.7661 83° East 320 368 7,700 732 Climbing FAA TRACON SMA TRACON (SMA)
Fri 10:39:00 AM 35.2766 -80.5120 30° Northeast  Level FlightAware Approximate
Fri 10:39:07 AM 35.1042 -80.7233 83° East 327 376 8,100  Level FAA TRACON SMA TRACON (SMA)
Fri 10:39:27 AM 35.1078 -80.6889 83° East 331 381 8,700 1,846 Climbing FAA TRACON SMA TRACON (SMA)
Fri 10:39:46 AM 35.1175 -80.6558 70° East 334 384 9,300 1,895 Climbing FAA TRACON SMA TRACON (SMA)
Fri 10:40:00 AM 35.3497 -80.4047 72° East  Level FlightAware Approximate
Fri 10:40:05 AM 35.1375 -80.6300 47° Northeast 346 398 9,900  Level FAA TRACON SMA TRACON (SMA)
Fri 10:40:26 AM 35.1658 -80.6089 31° Northeast 349 402 11,000 2,850 Climbing FAA TRACON SMA TRACON (SMA)
Fri 10:40:45 AM 35.1933 -80.5892 30° Northeast 342 394 11,800 1,538 Climbing FAA TRACON SMA TRACON (SMA)
Fri 10:41:05 AM 35.2189 -80.5706 31° Northeast 350 403 12,000 750 Climbing FAA TRACON SMA TRACON (SMA)
Fri 10:41:25 AM 35.2547 -80.5444 31° Northeast 398 458 12,300 1,350 Climbing FAA TRACON SMA TRACON (SMA)
Fri 10:41:45 AM 35.2842 -80.5231 31° Northeast 408 470 12,900 2,049 Climbing FAA TRACON SMA TRACON (SMA)
Fri 10:42:06 AM 35.3194 -80.4936 34° Northeast 399 459 13,700 2,100 Climbing FAA TRACON SMA TRACON (SMA)
Fri 10:42:25 AM 35.3389 -80.4586 56° Northeast 400 460 14,300 1,692 Climbing FAA TRACON SMA TRACON (SMA)
Fri 10:42:45 AM 35.3511 -80.4192 69° East 407 468 14,800 1,200 Climbing FAA TRACON SMA TRACON (SMA)
Fri 10:43:05 AM 35.3600 -80.3886 70° East 410 472 15,100 295 Climbing FAA TRACON SMA TRACON (SMA)
Fri 10:43:46 AM 35.3600 -80.3886 270° West 410 472 15,100 1,975 Level FAA TRACON SMA TRACON (SMA)
Fri 10:45:43 AM 35.4647 -80.0192 71° East 404 465 20,300 2,203 Climbing Washington Center
Fri 10:46:43 AM 35.5014 -79.8758 73° East 421 484 21,600 1,500 Climbing Washington Center
Fri 10:47:43 AM 35.5378 -79.7297 73° East 436 502 23,300 1,550 Climbing Washington Center
Fri 10:48:43 AM 35.5669 -79.6136 73° East 436 502 24,700 1,500 Climbing Washington Center
Fri 10:49:43 AM 35.6119 -79.4500 71° East 423 487 26,300 1,050 Climbing Washington Center
Fri 10:50:43 AM 35.6597 -79.3219 65° Northeast 410 472 26,800 350 Climbing Washington Center
Fri 10:51:43 AM 35.7242 -79.1944 58° Northeast 415 478 27,000 100 Climbing Washington Center
Fri 10:52:43 AM 35.8328 -79.1175 30° Northeast 415 478 27,000  Level Washington Center
Fri 10:53:43 AM 35.9353 -79.0372 32° Northeast 423 487 27,000  Level Washington Center
Fri 10:54:43 AM 36.0439 -78.9622 29° Northeast 434 499 27,000  Level Washington Center
Fri 10:55:43 AM 36.1506 -78.8819 31° Northeast 444 511 27,000  Level Washington Center
Fri 10:56:43 AM 36.2550 -78.8039 31° Northeast 444 511 27,000  Level Washington Center
Fri 10:57:43 AM 36.3656 -78.7208 31° Northeast 444 511 27,000  Level Washington Center
Fri 10:58:43 AM 36.4742 -78.6372 32° Northeast 444 511 27,000  Level Washington Center
Fri 10:59:43 AM 36.5847 -78.5536 31° Northeast 455 524 27,000  Level Washington Center
Fri 11:00:43 AM 36.6953 -78.4697 31° Northeast 460 529 27,000 -150 Level Washington Center
Fri 11:01:43 AM 36.8014 -78.3881 32° Northeast 460 529 26,700 -700 Descending Washington Center
Fri 11:02:43 AM 36.9097 -78.3064 31° Northeast 460 529 25,600 -1,000 Descending Washington Center
Fri 11:03:43 AM 37.0053 -78.2317 32° Northeast 460 529 24,700 -1,000 Descending Washington Center
Fri 11:04:43 AM 37.1200 -78.1444 31° Northeast 455 524 23,600 -1,050 Descending Washington Center
Fri 11:05:43 AM 37.2300 -78.0619 31° Northeast 455 524 22,600 -800 Descending Washington Center
Fri 11:06:43 AM 37.3403 -77.9769 31° Northeast 461 531 22,000 -300 Descending Washington Center
Fri 11:07:43 AM 37.4525 -77.8886 32° Northeast 461 531 22,000  Level Washington Center
Fri 11:08:43 AM 37.5689 -77.8058 29° Northeast 461 531 22,000 2,500 Level Washington Center
Fri 11:09:43 AM 37.6828 -77.7356 26° Northeast 466 536 27,000 -2,300 Climbing Washington Center
Fri 11:10:43 AM 37.7967 -77.6706 24° Northeast 452 520 17,400 -6,150 Descending Washington Center
Fri 11:11:43 AM 37.9081 -77.6078 24° Northeast 446 513 14,700 -2,800 Descending Washington Center
Fri 11:12:43 AM 38.0114 -77.5447 26° Northeast 427 491 11,800 -2,350 Descending Washington Center
Fri 11:13:43 AM 38.1019 -77.4942 24° Northeast 411 473 10,000 -900 Descending Washington Center
Fri 11:14:43 AM 38.1903 -77.4436 24° Northeast 375 432 10,000  Level Washington Center
Fri 11:15:43 AM 38.2722 -77.3928 26° Northeast 341 392 10,000 -650 Level Washington Center
Fri 11:16:43 AM 38.3583 -77.3578 18° North 327 376 8,700 -1,450 Descending Washington Center
Fri 11:17:43 AM 38.4439 -77.3597 359° North 310 357 7,100 -1,500 Descending Washington Center
Fri 11:18:43 AM 38.5292 -77.3644 358° North 310 357 5,700 -1,050 Descending Washington Center
Fri 11:19:43 AM 38.6167 -77.3667 359° North 310 357 5,000 -757 Descending Washington Center
Fri 11:20:34 AM 38.7000 -77.3667 360° North 306 352 4,300 -571 Descending Potomac TRACON
Fri 11:21:28 AM 38.7667 -77.3500 11° North 300 345 4,000 -158 Descending Potomac TRACON
Fri 11:22:28 AM 38.8500 -77.3500 360° North 293 337 4,000  Level Potomac TRACON
Fri 11:23:22 AM 38.9167 -77.3500 360° North 269 310 4,000  Level Potomac TRACON
Fri 11:24:22 AM 39.0000 -77.3500 360° North 259 298 4,000  Level Potomac TRACON
Fri 11:25:16 AM 39.0667 -77.3500 360° North 272 313 4,000  Level Potomac TRACON
Fri 11:26:17 AM 39.1333 -77.3500 360° North 251 289 4,000  Level Potomac TRACON
Fri 11:27:10 AM 39.2000 -77.3500 360° North 245 282 4,000  Level Potomac TRACON
Fri 11:28:10 AM 39.2667 -77.3500 360° North 240 276 4,000 -250 Level Potomac TRACON
Fri 11:29:10 AM 39.2667 -77.4000 270° West 171 197 3,500 -500 Descending Potomac TRACON
Fri 11:30:10 AM 39.2333 -77.4333 218° Southwest 154 177 3,000 -263 Descending Potomac TRACON
Fri 11:31:04 AM 39.2000 -77.4333 180° South 147 169 3,000  Level Potomac TRACON
Fri 11:32:05 AM 39.1500 -77.4333 180° South 152 175 3,000  Level Potomac TRACON
Fri 11:33:05 AM 39.1167 -77.4333 180° South 151 174 3,000 -200 Level Potomac TRACON
Fri 11:34:05 AM 39.0667 -77.4333 180° South 153 176 2,600 -400 Descending Potomac TRACON

Login

Don't have an account? Register now (free) for customized features, flight alerts, and more!